• En Estados Unidos
  • Lista de países
  • Para 7 días
  • Temperatura del agua
  • Mapa Satelital
  • El tiempo en el mapa
  • Informadores
  • user-avatar
    Iniciar sesión

    Tiempo cada hora Oran

    Hoy, 20 Junio, Miércoles

    Tiempo Temperatura Precipitaciones Viento Presión Humedad
    00:00 +24°C° 0 mm 3 mps 753 mmHg 75%
    01:00 +24°C° 0 mm 3 mps 753 mmHg 77%
    02:00 +22°C° 0 mm 3 mps 752 mmHg 79%
    03:00 +23°C° 0 mm 2 mps 752 mmHg 81%
    04:00 +23°C° 0 mm 2 mps 752 mmHg 80%
    05:00 +23°C° 0 mm 2 mps 752 mmHg 79%
    06:00 +24°C° 0 mm 2 mps 753 mmHg 78%
    07:00 +25°C° 0 mm 2 mps 753 mmHg 69%
    08:00 +27°C° 0 mm 2 mps 753 mmHg 61%
    09:00 +28°C° 0 mm 2 mps 753 mmHg 53%
    10:00 +30°C° 0 mm 3 mps 753 mmHg 48%
    11:00 +32°C° 0 mm 4 mps 752 mmHg 44%
    12:00 +33°C° 0 mm 5 mps 752 mmHg 39%
    13:00 +34°C° 0 mm 5 mps 752 mmHg 39%
    14:00 +34°C° 0 mm 6 mps 751 mmHg 38%
    15:00 +35°C° 0 mm 7 mps 751 mmHg 38%
    16:00 +34°C° 0 mm 7 mps 751 mmHg 40%
    17:00 +33°C° 0 mm 7 mps 751 mmHg 42%
    18:00 +32°C° 0 mm 7 mps 751 mmHg 44%
    19:00 +30°C° 0 mm 6 mps 751 mmHg 48%
    20:00 +29°C° 0 mm 6 mps 751 mmHg 51%
    21:00 +28°C° 0 mm 5 mps 752 mmHg 55%
    22:00 +27°C° 0 mm 5 mps 752 mmHg 57%
    23:00 +27°C° 0 mm 5 mps 751 mmHg 59%

    Mañana, 21 Junio, Jueves

    Tiempo Temperatura Precipitaciones Viento Presión Humedad
    00:00 +26°C° 0 mm 5 mps 751 mmHg 61%
    01:00 +26°C° 0 mm 4 mps 751 mmHg 64%
    02:00 +25°C° 0 mm 4 mps 751 mmHg 67%
    03:00 +25°C° 0 mm 4 mps 751 mmHg 69%
    04:00 +25°C° 0 mm 4 mps 751 mmHg 70%
    05:00 +25°C° 0 mm 4 mps 751 mmHg 72%
    06:00 +25°C° 0 mm 4 mps 751 mmHg 73%
    07:00 +26°C° 0 mm 4 mps 751 mmHg 65%
    08:00 +27°C° 0 mm 4 mps 751 mmHg 58%
    09:00 +29°C° 0 mm 5 mps 751 mmHg 51%
    10:00 +30°C° 0 mm 5 mps 751 mmHg 46%
    11:00 +33°C° 0 mm 5 mps 751 mmHg 42%
    12:00 +34°C° 0 mm 6 mps 751 mmHg 37%
    13:00 +34°C° 0 mm 6 mps 751 mmHg 37%
    14:00 +35°C° 0 mm 7 mps 750 mmHg 37%
    15:00 +35°C° 0 mm 7 mps 750 mmHg 36%
    16:00 +34°C° 0 mm 7 mps 750 mmHg 38%
    17:00 +33°C° 0 mm 7 mps 750 mmHg 40%
    18:00 +32°C° 0 mm 6 mps 750 mmHg 42%
    19:00 +30°C° 0 mm 6 mps 750 mmHg 46%
    20:00 +29°C° 0 mm 5 mps 750 mmHg 50%
    21:00 +28°C° 0 mm 4 mps 751 mmHg 54%
    22:00 +27°C° 0 mm 4 mps 751 mmHg 57%
    23:00 +27°C° 0 mm 4 mps 751 mmHg 61%

    Pasado mañana, 22 Junio, Viernes

    Tiempo Temperatura Precipitaciones Viento Presión Humedad
    00:00 +26°C° 0 mm 3 mps 751 mmHg 64%
    01:00 +26°C° 0 mm 3 mps 751 mmHg 66%
    02:00 +25°C° 0 mm 3 mps 750 mmHg 68%
    03:00 +25°C° 0 mm 3 mps 750 mmHg 70%
    04:00 +25°C° 0 mm 3 mps 750 mmHg 71%
    05:00 +25°C° 0 mm 3 mps 750 mmHg 73%
    06:00 +25°C° 0 mm 2 mps 750 mmHg 74%
    07:00 +26°C° 0 mm 3 mps 750 mmHg 69%
    08:00 +27°C° 0 mm 3 mps 750 mmHg 63%
    09:00 +28°C° 0 mm 3 mps 751 mmHg 58%
    10:00 +29°C° 0 mm 3 mps 750 mmHg 53%
    11:00 +32°C° 0 mm 4 mps 750 mmHg 49%
    12:00 +33°C° 0 mm 5 mps 750 mmHg 44%
    13:00 +33°C° 0 mm 5 mps 750 mmHg 43%
    14:00 +34°C° 0 mm 5 mps 750 mmHg 42%
    15:00 +34°C° 0 mm 5 mps 749 mmHg 41%
    16:00 +33°C° 0 mm 5 mps 749 mmHg 43%
    17:00 +33°C° 0 mm 4 mps 749 mmHg 45%
    18:00 +32°C° 0 mm 4 mps 749 mmHg 46%
    19:00 +30°C° 0 mm 4 mps 749 mmHg 51%
    20:00 +29°C° 0 mm 3 mps 750 mmHg 55%
    21:00 +28°C° 0 mm 3 mps 750 mmHg 59%
    22:00 +27°C° 0 mm 3 mps 750 mmHg 63%
    23:00 +26°C° 0 mm 3 mps 750 mmHg 66%

    23 Junio, Sábado

    Tiempo Temperatura Precipitaciones Viento Presión Humedad
    00:00 +26°C° 0 mm 3 mps 750 mmHg 70%
    01:00 +25°C° 0 mm 3 mps 750 mmHg 72%
    02:00 +25°C° 0 mm 2 mps 750 mmHg 74%
    03:00 +24°C° 0 mm 2 mps 750 mmHg 76%
    04:00 +24°C° 0 mm 2 mps 750 mmHg 76%
    05:00 +24°C° 0 mm 2 mps 750 mmHg 77%
    06:00 +24°C° 0 mm 2 mps 750 mmHg 78%
    07:00 +26°C° 0 mm 2 mps 750 mmHg 71%
    08:00 +27°C° 0 mm 2 mps 750 mmHg 65%
    09:00 +28°C° 0 mm 2 mps 750 mmHg 59%
    10:00 +30°C° 0 mm 3 mps 750 mmHg 55%
    11:00 +31°C° 0 mm 3 mps 750 mmHg 51%
    12:00 +33°C° 0 mm 4 mps 750 mmHg 47%
    13:00 +33°C° 0 mm 4 mps 749 mmHg 47%
    14:00 +34°C° 0 mm 4 mps 749 mmHg 46%
    15:00 +34°C° 0 mm 4 mps 748 mmHg 46%
    16:00 +33°C° 0 mm 4 mps 748 mmHg 48%
    17:00 +32°C° 0 mm 4 mps 748 mmHg 50%
    18:00 +32°C° 0 mm 4 mps 748 mmHg 52%
    19:00 +30°C° 0 mm 3 mps 749 mmHg 55%
    20:00 +29°C° 0 mm 3 mps 749 mmHg 59%
    21:00 +28°C° 0 mm 3 mps 750 mmHg 62%
    22:00 +27°C° 0 mm 3 mps 750 mmHg 65%
    23:00 +27°C° 0 mm 3 mps 749 mmHg 68%

    24 Junio, Domingo

    Tiempo Temperatura Precipitaciones Viento Presión Humedad
    00:00 +26°C° 0 mm 3 mps 749 mmHg 71%
    01:00 +26°C° 0 mm 3 mps 749 mmHg 74%
    02:00 +25°C° 0 mm 3 mps 749 mmHg 77%
    03:00 +25°C° 0 mm 3 mps 749 mmHg 79%
    04:00 +25°C° 0 mm 3 mps 749 mmHg 80%
    05:00 +25°C° 0 mm 3 mps 749 mmHg 80%
    06:00 +25°C° 0 mm 3 mps 749 mmHg 80%
    07:00 +26°C° 0 mm 3 mps 749 mmHg 74%
    08:00 +27°C° 0 mm 3 mps 749 mmHg 69%
    09:00 +28°C° 0 mm 3 mps 750 mmHg 63%
    10:00 +29°C° 0 mm 3 mps 750 mmHg 59%
    11:00 +30°C° 0 mm 4 mps 750 mmHg 55%
    12:00 +32°C° 0 mm 4 mps 749 mmHg 51%
    13:00 +32°C° 0 mm 4 mps 749 mmHg 51%
    14:00 +32°C° 0 mm 4 mps 749 mmHg 51%
    15:00 +32°C° 0 mm 4 mps 749 mmHg 51%
    16:00 +32°C° 0 mm 4 mps 749 mmHg 55%
    17:00 +30°C° 0 mm 4 mps 749 mmHg 59%
    18:00 +29°C° 0 mm 3 mps 750 mmHg 62%
    19:00 +28°C° 0 mm 3 mps 750 mmHg 66%
    20:00 +27°C° 0 mm 3 mps 750 mmHg 70%
    21:00 +26°C° 0 mm 2 mps 751 mmHg 74%
    22:00 +26°C° 0 mm 2 mps 751 mmHg 75%
    23:00 +25°C° 0 mm 3 mps 751 mmHg 77%

    25 Junio, Lunes

    Tiempo Temperatura Precipitaciones Viento Presión Humedad
    00:00 +25°C° 0 mm 3 mps 751 mmHg 78%
    01:00 +25°C° 0 mm 2 mps 751 mmHg 79%
    02:00 +24°C° 0 mm 2 mps 751 mmHg 80%
    03:00 +24°C° 0 mm 2 mps 751 mmHg 81%
    04:00 +24°C° 0 mm 2 mps 751 mmHg 81%
    05:00 +24°C° 0 mm 2 mps 751 mmHg 81%
    06:00 +24°C° 0 mm 2 mps 751 mmHg 81%
    07:00 +25°C° 0 mm 2 mps 751 mmHg 74%
    08:00 +26°C° 0 mm 2 mps 752 mmHg 67%
    09:00 +27°C° 0 mm 2 mps 752 mmHg 60%
    10:00 +29°C° 0 mm 3 mps 752 mmHg 53%
    11:00 +30°C° 0 mm 3 mps 751 mmHg 47%
    12:00 +33°C° 0 mm 3 mps 751 mmHg 40%
    13:00 +33°C° 0 mm 3 mps 751 mmHg 40%
    14:00 +33°C° 0 mm 4 mps 751 mmHg 40%
    15:00 +33°C° 0 mm 4 mps 751 mmHg 39%
    16:00 +33°C° 0 mm 3 mps 751 mmHg 40%
    17:00 +31°C° 0 mm 3 mps 751 mmHg 42%
    18:00 +30°C° 0 mm 2 mps 751 mmHg 43%
    19:00 +30°C° 0 mm 2 mps 752 mmHg 45%
    20:00 +29°C° 0 mm 1 mps 752 mmHg 48%
    21:00 +28°C° 0 mm 1 mps 753 mmHg 50%
    22:00 +28°C° 0 mm 1 mps 752 mmHg 52%
    23:00 +27°C° 0 mm 2 mps 752 mmHg 54%
    Mostrar más